Location: Eldred Sherwood Park Lake Dam
(42.9416°N, 93.5655°W)
Time: 12:20:06
(UTC+00:00)

Explorer 11/Cluster Stage 4 - Pass Details

Date: 14 December 2025
Orbit: 463 x 1180 km, 28.8° (Epoch: 13 January)

Event Time Altitude Azimuth Distance (km) Brightness Sun altitude
Rises 02:32:19 0° 243° (WSW) 3,905 10.8 -41.5°
Reaches altitude 10° 02:35:52 10° 230° (SW) 2,848 9.8 -42.2°
Enters shadow 02:37:22 15° 221° (SW) 2,465 9.3 -42.4°
